Regional Weather Roundup
Issued by NWS Sterling, VA

Home | Current Version | Previous Version | Graphics & Text | Print | Product List | Glossary On
Versions: 1 2 3 4 5 6 7 8 9 10 11 12 13 14 15 16 17 18 19 20 21 22 23 24 25 26 27 28 29 30 31 32 33 34 35 36 37 38 39 40 41 42 43 44 45 46 47 48 49 50
000
ASUS41 KLWX 022010
RWRLWX

REGIONAL WEATHER ROUNDUP
NATIONAL WEATHER SERVICE BALTIMORE MD/WASHINGTON DC
400 PM EDT SUN AUG 02 2015

Note: "FAIR" indicates few or no clouds below 12,000 feet
with no significant weather and/or obstructions to visibility.
 TC=TEMPERATURE CELSIUS

 * =Non NWS site. Station does not report precipitation (e.g. rain,
    snow, etc.), thunder, or fog.

DCZ001-MDZ009-015-VAZ040>042-051-053>054-022100-
WASHINGTON METRO

CITY           SKY/WX    TMP DP  RH WIND       PRES   REMARKS
WASHINGTON NAT PTSUNNY   90  56  31 SW13      29.93F
DULLES         PTSUNNY   87  56  34 W6        29.94F
ANDREWS AFB    MOSUNNY   88  54  31 SW7       29.93F
FT BELVOIR     PTSUNNY   86  59  40 S6        29.94F
LEESBURG*      SUNNY     90  59  35 SW9       29.96F
MANASSAS*      SUNNY     86  54  32 VRB5      29.94F
GAITHERSBURG*  SUNNY     84  55  37 NW10      29.98F

$$

MDZ006>007-011-014-022100-
BALTIMORE METRO

CITY           SKY/WX    TMP DP  RH WIND       PRES   REMARKS
BWI AIRPORT    PTSUNNY   88  54  31 SW6       29.92F
MD SCIENCE CTR   N/A     89  51  27 MISG      29.92F
MARTIN STATE   MOSUNNY   88  63  42 SE10      29.93F
ANNAPOLIS      MOSUNNY   83  59  44 SE12      29.92F
FORT MEADE*    SUNNY     84  55  37 CALM      29.95F

$$

MDZ012-015-019>023-022100-
MARYLAND EASTERN SHORE

CITY           SKY/WX    TMP DP  RH WIND       PRES   REMARKS
OCEAN CITY     CLOUDY    80  69  69 SE6       29.93S
SALISBURY      PTSUNNY   85  65  51 SE6       29.92S
BAY BRIDGE AP*   N/A     86  52  30 SW5       29.93F
CAMBRIDGE*     SUNNY     86  55  35 NW7       29.93S
EASTON*        MOSUNNY   88  59  37 W6        29.97F

$$

MDZ017>025-022100-
SOUTHERN MARYLAND

CITY           SKY/WX    TMP DP  RH WIND       PRES   REMARKS
PATUXENT RIVER PTSUNNY   86  57  37 VRB5      29.93F
ST INIGOES     PTSUNNY   85  62  46 SW3       29.93S
LEONARDTOWN*   PTSUNNY   82  57  42 CALM      29.96S

$$

MDZ003>005-022100-
NORTH CENTRAL MARYLAND

CITY           SKY/WX    TMP DP  RH WIND       PRES   REMARKS
FREDERICK*     MOSUNNY   90  61  37 W9G17     29.96F
HAGERSTOWN APT MOSUNNY   88  53  30 SW12      29.93F
WESTMINSTER*   SUNNY     86  55  35 SW8       29.96F

$$

MDZ501>502-022100-
WESTERN MARYLAND

CITY           SKY/WX    TMP DP  RH WIND       PRES   REMARKS
OAKLAND*       MOSUNNY   73  64  73 SW7       30.07S
CUMBERLAND*    MOSUNNY   86  54  32 SW9G17    29.98F

$$

VAZ025>031-022100-
SHENANDOAH VALLEY

CITY           SKY/WX    TMP DP  RH WIND       PRES   REMARKS
WINCHESTER*    PTSUNNY   86  55  35 S9        29.95F
FRONT ROYAL*   FAIR      86  59  39 S6        29.95F
LURAY*         FAIR      88  55  33 SW7       29.97F
NEW MARKET*    FAIR      83  61  45 S6        29.95F
STAUNTON*      PTSUNNY   84  54  34 S6        30.02F
WAYNESBORO*    FAIR      79  61  54 SW8       30.02S

$$

WVZ021-048>050-054>055-022100-
EASTERN WEST VIRGINIA PANHANDLE

CITY           SKY/WX    TMP DP  RH WIND       PRES   REMARKS
MARTINSBURG    MOSUNNY   87  57  35 SW8       29.94F
PETERSBURG*    MOSUNNY  N/A N/A N/A CALM      29.97F

$$

VAZ036>039-050-022100-
CENTRAL FOOTHILLS

CITY           SKY/WX    TMP DP  RH WIND       PRES   REMARKS
CHARLOTTESVILL CLOUDY    81  60  48 SW7       29.98F
CULPEPER*      PTSUNNY   82  60  47 S6        29.96F
ORANGE*        CLOUDY    82  61  47 S5        29.99S
GORDONSVILLE*  FAIR      81  63  54 SW7       29.97S
WARRENTON*     FAIR      86  61  42 SW6       29.95F

$$

VAZ055>057-022100-
NORTH AND CENTRAL PIEDMONT

CITY           SKY/WX    TMP DP  RH WIND       PRES   REMARKS
FREDERICKSBRG* CLOUDY    87  60  39 S5        29.94F
STAFFORD*      CLOUDY    83  60  46 CALM      30.00S

$$

NCZ024-NYZ072-PAZ021-071-VAZ022-071-022100-
OTHER REGIONAL OBSERVATIONS

CITY           SKY/WX    TMP DP  RH WIND       PRES   REMARKS
NEW YORK CITY  MOSUNNY   86  56  35 VRB3      29.91S
PHILADELPHIA   PTSUNNY   89  53  29 SW12      29.92S
PITTSBURGH     MOSUNNY   85  60  42 W7G20     29.92F
ROANOKE        PTSUNNY   82  55  39 NE9       30.03F
RICHMOND       PTSUNNY   88  60  38 E6        29.94F
RALEIGH        MOSUNNY   89  58  34 NE8       29.95F

$$

ANZ530>537-022100-
MARINE OBSERVATIONS

STATION/POSITION TIME  TEMP    WIND        PRES
                       AIR SEA DIR/SP/G
                 (UTC) (F)     (DEG/KT/KT) (MB)
THOMAS PT LIGHT  NOT AVBL
BALT KEY BRIDGE  1900   82     120/  8/ 11 1013.4F
COVE POINT       1900   81      20/  4/  6 1014.5F
LEWISETTA        1900   84 84   90/  1/  2 1013.4F
SOLOMONS ISLAND  1900      84                N/A
PINEY POINT      1900          300/  4/  5   N/A

$$



USA.gov is the U.S. government's official web portal to all federal, state and local government web resources and services.